Zurück zum Katalog

SL-16 DEB

LostLEO
NORAD 39905·DEBRIS·🇷🇺 Russia

Gestartet Mar 26, 1993 von Baikonur Cosmodrome

Loading…

Nächste Überflüge (nächste 24 Stunden)

TLE

VeraltetSource: Space-Track

Epoche: Jan 28, 2023, 09:20 UTC

1 39905U 93016CF  23028.38920345  .00006098  00000-0  24275-2 0  9999
2 39905  70.9562 286.8660 0124613 241.1392 241.7052 14.24818853 19344

Verfolge SL-16 DEB in Echtzeit mit AllMySat

Download on the App Store